Time,TemperatureF,DewpointF,PressureIn,WindDirection,WindDirectionDegrees,WindSpeedMPH,WindSpeedGustMPH,Humidity,HourlyPrecipIn,Conditions,Clouds,dailyrainin,SoftwareType,DateUTC
2013-05-28 00:01:00,69.0,2.0,29.64,WNW,291,7.0,-999.0,7,-99.99,,,-99.99,,2013-05-28 07:01:00,
2013-05-28 00:11:00,69.0,2.0,29.64,WNW,291,7.0,-999.0,7,-99.99,,,-99.99,,2013-05-28 07:11:00,
2013-05-28 00:21:00,67.0,4.0,29.65,WNW,294,5.0,-999.0,8,-99.99,,,-99.99,,2013-05-28 07:21:00,
2013-05-28 00:32:00,68.0,9.0,29.65,WNW,292,6.0,-999.0,10,-99.99,,,-99.99,,2013-05-28 07:32:00,
2013-05-28 00:42:00,68.0,9.0,29.65,WNW,292,6.0,-999.0,10,-99.99,,,-99.99,,2013-05-28 07:42:00,
2013-05-28 00:52:00,68.0,12.0,29.64,WNW,300,6.0,-999.0,11,-99.99,,,-99.99,,2013-05-28 07:52:00,
2013-05-28 01:01:00,66.0,12.0,29.63,WNW,285,6.0,-999.0,12,-99.99,,,-99.99,,2013-05-28 08:01:00,
2013-05-28 01:11:00,66.0,12.0,29.63,WNW,285,6.0,-999.0,12,-99.99,,,-99.99,,2013-05-28 08:11:00,
2013-05-28 01:21:00,66.0,14.0,29.63,West,273,5.0,-999.0,13,-99.99,,,-99.99,,2013-05-28 08:21:00,
2013-05-28 01:32:00,65.0,15.0,29.62,West,273,5.0,-999.0,14,-99.99,,,-99.99,,2013-05-28 08:32:00,
2013-05-28 01:42:00,65.0,15.0,29.62,West,273,5.0,-999.0,14,-99.99,,,-99.99,,2013-05-28 08:42:00,
2013-05-28 01:51:00,66.0,17.0,29.62,West,279,3.0,-999.0,15,-99.99,,,-99.99,,2013-05-28 08:51:00,
2013-05-28 02:01:00,64.0,14.0,29.62,West,277,0.0,-999.0,14,-99.99,,,-99.99,,2013-05-28 09:01:00,
2013-05-28 02:11:00,64.0,14.0,29.62,West,277,0.0,-999.0,14,-99.99,,,-99.99,,2013-05-28 09:11:00,
2013-05-28 02:21:00,61.0,10.0,29.61,West,277,0.0,-999.0,13,-99.99,,,-99.99,,2013-05-28 09:21:00,
2013-05-28 02:33:00,60.0,12.0,29.62,West,277,0.0,-999.0,15,-99.99,,,-99.99,,2013-05-28 09:33:00,
2013-05-28 02:42:00,60.0,12.0,29.62,West,277,0.0,-999.0,15,-99.99,,,-99.99,,2013-05-28 09:42:00,
2013-05-28 02:53:00,58.0,11.0,29.61,West,277,0.0,-999.0,15,-99.99,,,-99.99,,2013-05-28 09:53:00,
2013-05-28 03:02:00,60.0,12.0,29.61,West,277,0.0,-999.0,15,-99.99,,,-99.99,,2013-05-28 10:02:00,
2013-05-28 03:12:00,60.0,12.0,29.61,West,277,0.0,-999.0,15,-99.99,,,-99.99,,2013-05-28 10:12:00,
2013-05-28 03:22:00,59.0,11.0,29.61,West,277,0.0,-999.0,15,-99.99,,,-99.99,,2013-05-28 10:22:00,
2013-05-28 03:32:00,59.0,11.0,29.60,West,277,0.0,-999.0,15,-99.99,,,-99.99,,2013-05-28 10:32:00,
2013-05-28 03:42:00,59.0,11.0,29.60,West,277,0.0,-999.0,15,-99.99,,,-99.99,,2013-05-28 10:42:00,
2013-05-28 03:52:00,56.0,13.0,29.60,West,277,0.0,-999.0,18,-99.99,,,-99.99,,2013-05-28 10:52:00,
2013-05-28 04:02:00,55.0,15.0,29.60,West,277,0.0,-999.0,20,-99.99,,,-99.99,,2013-05-28 11:02:00,
2013-05-28 04:11:00,55.0,15.0,29.60,West,277,0.0,-999.0,20,-99.99,,,-99.99,,2013-05-28 11:11:00,
2013-05-28 04:22:00,53.0,14.0,29.60,West,277,0.0,-999.0,21,-99.99,,,-99.99,,2013-05-28 11:22:00,
2013-05-28 04:32:00,52.0,14.0,29.60,West,277,0.0,-999.0,22,-99.99,,,-99.99,,2013-05-28 11:32:00,
2013-05-28 04:41:00,52.0,14.0,29.60,West,277,0.0,-999.0,22,-99.99,,,-99.99,,2013-05-28 11:41:00,
2013-05-28 04:52:00,51.0,15.0,29.60,West,277,0.0,-999.0,23,-99.99,,,-99.99,,2013-05-28 11:52:00,
2013-05-28 05:01:00,51.0,14.0,29.59,West,277,0.0,-999.0,22,-99.99,,,-99.99,,2013-05-28 12:01:00,
2013-05-28 05:11:00,51.0,14.0,29.59,West,277,0.0,-999.0,22,-99.99,,,-99.99,,2013-05-28 12:11:00,
2013-05-28 05:21:00,51.0,15.0,29.59,West,277,0.0,-999.0,23,-99.99,,,-99.99,,2013-05-28 12:21:00,
2013-05-28 05:31:00,51.0,15.0,29.59,West,277,0.0,-999.0,23,-99.99,,,-99.99,,2013-05-28 12:31:00,
2013-05-28 05:42:00,51.0,15.0,29.59,West,277,0.0,-999.0,23,-99.99,,,-99.99,,2013-05-28 12:42:00,
2013-05-28 05:52:00,51.0,15.0,29.59,West,277,0.0,-999.0,23,-99.99,,,-99.99,,2013-05-28 12:52:00,
2013-05-28 06:01:00,51.0,16.0,29.59,West,277,0.0,-999.0,24,-99.99,,,-99.99,,2013-05-28 13:01:00,
2013-05-28 06:11:00,51.0,16.0,29.59,West,277,0.0,-999.0,24,-99.99,,,-99.99,,2013-05-28 13:11:00,
2013-05-28 06:21:00,51.0,17.0,29.59,West,277,0.0,-999.0,26,-99.99,,,-99.99,,2013-05-28 13:21:00,
2013-05-28 06:32:00,52.0,19.0,29.59,West,277,0.0,-999.0,27,-99.99,,,-99.99,,2013-05-28 13:32:00,
2013-05-28 06:42:00,52.0,19.0,29.59,West,277,0.0,-999.0,27,-99.99,,,-99.99,,2013-05-28 13:42:00,
2013-05-28 06:52:00,54.0,22.0,29.59,West,277,0.0,-999.0,29,-99.99,,,-99.99,,2013-05-28 13:52:00,
2013-05-28 07:01:00,57.0,22.0,29.59,West,277,0.0,-999.0,26,-99.99,,,-99.99,,2013-05-28 14:01:00,
2013-05-28 07:11:00,57.0,22.0,29.59,West,277,0.0,-999.0,26,-99.99,,,-99.99,,2013-05-28 14:11:00,
2013-05-28 07:21:00,61.0,24.0,29.58,West,277,0.0,-999.0,24,-99.99,,,-99.99,,2013-05-28 14:21:00,
2013-05-28 07:32:00,65.0,23.0,29.57,North,11,0.0,-999.0,20,-99.99,,,-99.99,,2013-05-28 14:32:00,
2013-05-28 07:41:00,65.0,23.0,29.57,North,11,0.0,-999.0,20,-99.99,,,-99.99,,2013-05-28 14:41:00,
2013-05-28 07:51:00,67.0,22.0,29.58,NNE,26,1.0,-999.0,18,-99.99,,,-99.99,,2013-05-28 14:51:00,
2013-05-28 08:01:00,67.0,22.0,29.58,NNE,26,1.0,-999.0,18,-99.99,,,-99.99,,2013-05-28 15:01:00,
2013-05-28 08:11:00,67.0,22.0,29.58,NNE,26,1.0,-999.0,18,-99.99,,,-99.99,,2013-05-28 15:11:00,
2013-05-28 08:21:00,70.0,23.0,29.58,WNW,292,1.0,-999.0,17,-99.99,,,-99.99,,2013-05-28 15:21:00,
2013-05-28 08:32:00,71.0,23.0,29.59,WNW,294,0.0,-999.0,16,-99.99,,,-99.99,,2013-05-28 15:32:00,
2013-05-28 08:43:00,71.0,23.0,29.59,WNW,294,0.0,-999.0,16,-99.99,,,-99.99,,2013-05-28 15:43:00,
2013-05-28 08:52:00,73.0,19.0,29.58,WNW,299,0.0,-999.0,13,-99.99,,,-99.99,,2013-05-28 15:52:00,
2013-05-28 09:03:00,75.0,21.0,29.59,North,349,1.0,-999.0,13,-99.99,,,-99.99,,2013-05-28 16:03:00,
2013-05-28 09:12:00,75.0,21.0,29.59,North,349,1.0,-999.0,13,-99.99,,,-99.99,,2013-05-28 16:12:00,
2013-05-28 09:22:00,75.0,17.0,29.58,SSW,201,2.0,-999.0,11,-99.99,,,-99.99,,2013-05-28 16:22:00,
2013-05-28 09:33:00,77.0,20.0,29.58,NNW,327,2.0,-999.0,12,-99.99,,,-99.99,,2013-05-28 16:33:00,
2013-05-28 09:42:00,77.0,20.0,29.58,NNW,327,2.0,-999.0,12,-99.99,,,-99.99,,2013-05-28 16:42:00,
2013-05-28 09:52:00,77.0,18.0,29.58,NNE,19,1.0,-999.0,11,-99.99,,,-99.99,,2013-05-28 16:52:00,
2013-05-28 10:02:00,78.0,19.0,29.57,NNE,28,1.0,-999.0,11,-99.99,,,-99.99,,2013-05-28 17:02:00,
2013-05-28 10:12:00,78.0,19.0,29.57,NNE,28,1.0,-999.0,11,-99.99,,,-99.99,,2013-05-28 17:12:00,
2013-05-28 10:22:00,78.0,19.0,29.57,NNE,28,1.0,-999.0,11,-99.99,,,-99.99,,2013-05-28 17:22:00,
2013-05-28 10:32:00,79.0,18.0,29.57,NW,317,0.0,-999.0,10,-99.99,,,-99.99,,2013-05-28 17:32:00,
2013-05-28 10:42:00,80.0,13.0,29.57,SSW,197,3.0,-999.0,8,-99.99,,,-99.99,,2013-05-28 17:42:00,
2013-05-28 10:52:00,80.0,13.0,29.57,SSW,197,3.0,-999.0,8,-99.99,,,-99.99,,2013-05-28 17:52:00,
2013-05-28 11:01:00,81.0,14.0,29.56,West,261,4.0,-999.0,8,-99.99,,,-99.99,,2013-05-28 18:01:00,
2013-05-28 11:11:00,81.0,14.0,29.56,West,261,4.0,-999.0,8,-99.99,,,-99.99,,2013-05-28 18:11:00,
2013-05-28 11:21:00,81.0,17.0,29.57,NW,317,4.0,-999.0,9,-99.99,,,-99.99,,2013-05-28 18:21:00,
2013-05-28 11:32:00,81.0,11.0,29.57,WSW,241,3.0,-999.0,7,-99.99,,,-99.99,,2013-05-28 18:32:00,
2013-05-28 11:42:00,81.0,8.0,29.56,SW,220,7.0,-999.0,6,-99.99,,,-99.99,,2013-05-28 18:42:00,
2013-05-28 11:52:00,81.0,8.0,29.56,SW,220,7.0,-999.0,6,-99.99,,,-99.99,,2013-05-28 18:52:00,
2013-05-28 12:01:00,83.0,9.0,29.56,South,189,5.0,-999.0,6,-99.99,,,-99.99,,2013-05-28 19:01:00,
2013-05-28 12:11:00,83.0,9.0,29.56,South,189,5.0,-999.0,6,-99.99,,,-99.99,,2013-05-28 19:11:00,
2013-05-28 12:21:00,84.0,10.0,29.55,South,188,5.0,-999.0,6,-99.99,,,-99.99,,2013-05-28 19:21:00,
2013-05-28 12:31:00,84.0,6.0,29.54,NW,304,5.0,-999.0,5,-99.99,,,-99.99,,2013-05-28 19:31:00,
2013-05-28 12:41:00,84.0,6.0,29.54,NW,304,5.0,-999.0,5,-99.99,,,-99.99,,2013-05-28 19:41:00,
2013-05-28 12:52:00,83.0,9.0,29.54,WSW,244,6.0,-999.0,6,-99.99,,,-99.99,,2013-05-28 19:52:00,
2013-05-28 13:01:00,84.0,10.0,29.54,WSW,253,4.0,-999.0,6,-99.99,,,-99.99,,2013-05-28 20:01:00,
2013-05-28 13:11:00,84.0,10.0,29.54,WSW,253,4.0,-999.0,6,-99.99,,,-99.99,,2013-05-28 20:11:00,
2013-05-28 13:22:00,84.0,10.0,29.53,South,175,5.0,-999.0,6,-99.99,,,-99.99,,2013-05-28 20:22:00,
2013-05-28 13:32:00,85.0,11.0,29.54,West,269,8.0,-999.0,6,-99.99,,,-99.99,,2013-05-28 20:32:00,
2013-05-28 13:42:00,85.0,11.0,29.54,West,269,8.0,-999.0,6,-99.99,,,-99.99,,2013-05-28 20:42:00,
2013-05-28 13:52:00,86.0,11.0,29.53,SW,223,5.0,-999.0,6,-99.99,,,-99.99,,2013-05-28 20:52:00,
2013-05-28 14:01:00,85.0,11.0,29.53,NW,323,10.0,-999.0,6,-99.99,,,-99.99,,2013-05-28 21:01:00,
2013-05-28 14:11:00,84.0,13.0,29.53,West,265,8.0,-999.0,7,-99.99,,,-99.99,,2013-05-28 21:11:00,
2013-05-28 14:21:00,84.0,13.0,29.53,West,265,8.0,-999.0,7,-99.99,,,-99.99,,2013-05-28 21:21:00,
2013-05-28 14:33:00,85.0,11.0,29.52,NNW,346,8.0,-999.0,6,-99.99,,,-99.99,,2013-05-28 21:33:00,
2013-05-28 14:43:00,85.0,11.0,29.51,SSE,161,7.0,-999.0,6,-99.99,,,-99.99,,2013-05-28 21:43:00,
2013-05-28 14:53:00,85.0,11.0,29.51,SSE,161,7.0,-999.0,6,-99.99,,,-99.99,,2013-05-28 21:53:00,
2013-05-28 15:02:00,84.0,10.0,29.52,West,272,8.0,-999.0,6,-99.99,,,-99.99,,2013-05-28 22:02:00,
2013-05-28 15:12:00,84.0,10.0,29.52,West,267,6.0,-999.0,6,-99.99,,,-99.99,,2013-05-28 22:12:00,
2013-05-28 15:22:00,84.0,10.0,29.52,West,267,6.0,-999.0,6,-99.99,,,-99.99,,2013-05-28 22:22:00,
2013-05-28 15:32:00,84.0,10.0,29.51,WSW,253,8.0,-999.0,6,-99.99,,,-99.99,,2013-05-28 22:32:00,
2013-05-28 15:42:00,83.0,13.0,29.51,WNW,286,6.0,-999.0,7,-99.99,,,-99.99,,2013-05-28 22:42:00,
2013-05-28 15:52:00,83.0,13.0,29.51,WNW,286,6.0,-999.0,7,-99.99,,,-99.99,,2013-05-28 22:52:00,
2013-05-28 16:02:00,83.0,9.0,29.51,SSW,200,6.0,-999.0,6,-99.99,,,-99.99,,2013-05-28 23:02:00,
2013-05-28 16:11:00,83.0,9.0,29.51,West,264,9.0,-999.0,6,-99.99,,,-99.99,,2013-05-28 23:11:00,
2013-05-28 16:21:00,83.0,9.0,29.51,West,264,9.0,-999.0,6,-99.99,,,-99.99,,2013-05-28 23:21:00,
2013-05-28 16:32:00,83.0,13.0,29.51,West,270,8.0,-999.0,7,-99.99,,,-99.99,,2013-05-28 23:32:00,
2013-05-28 16:42:00,83.0,13.0,29.51,West,270,8.0,-999.0,7,-99.99,,,-99.99,,2013-05-28 23:42:00,
2013-05-28 16:52:00,83.0,13.0,29.50,WSW,249,7.0,-999.0,7,-99.99,,,-99.99,,2013-05-28 23:52:00,
2013-05-28 17:02:00,82.0,12.0,29.50,WSW,237,9.0,-999.0,7,-99.99,,,-99.99,,2013-05-29 00:02:00,
2013-05-28 17:11:00,82.0,12.0,29.50,WSW,237,9.0,-999.0,7,-99.99,,,-99.99,,2013-05-29 00:11:00,
2013-05-28 17:21:00,81.0,11.0,29.49,WSW,257,9.0,-999.0,7,-99.99,,,-99.99,,2013-05-29 00:21:00,
2013-05-28 17:32:00,80.0,13.0,29.49,WSW,238,7.0,-999.0,8,-99.99,,,-99.99,,2013-05-29 00:32:00,
2013-05-28 17:41:00,80.0,13.0,29.49,WSW,238,7.0,-999.0,8,-99.99,,,-99.99,,2013-05-29 00:41:00,
2013-05-28 17:51:00,79.0,13.0,29.49,WSW,245,8.0,-999.0,8,-99.99,,,-99.99,,2013-05-29 00:51:00,
2013-05-28 18:01:00,79.0,13.0,29.49,SSW,211,4.0,-999.0,8,-99.99,,,-99.99,,2013-05-29 01:01:00,
2013-05-28 18:11:00,79.0,13.0,29.49,SSW,211,4.0,-999.0,8,-99.99,,,-99.99,,2013-05-29 01:11:00,
2013-05-28 18:21:00,79.0,15.0,29.49,SW,223,4.0,-999.0,9,-99.99,,,-99.99,,2013-05-29 01:21:00,
2013-05-28 18:32:00,79.0,15.0,29.50,West,276,3.0,-999.0,9,-99.99,,,-99.99,,2013-05-29 01:32:00,
2013-05-28 18:41:00,79.0,15.0,29.50,West,276,3.0,-999.0,9,-99.99,,,-99.99,,2013-05-29 01:41:00,
2013-05-28 18:52:00,78.0,17.0,29.49,West,266,5.0,-999.0,10,-99.99,,,-99.99,,2013-05-29 01:52:00,
2013-05-28 19:02:00,77.0,16.0,29.50,SW,214,6.0,-999.0,10,-99.99,,,-99.99,,2013-05-29 02:02:00,
2013-05-28 19:12:00,77.0,16.0,29.50,SW,214,6.0,-999.0,10,-99.99,,,-99.99,,2013-05-29 02:12:00,
2013-05-28 19:21:00,77.0,18.0,29.49,WNW,286,2.0,-999.0,11,-99.99,,,-99.99,,2013-05-29 02:21:00,
2013-05-28 19:31:00,76.0,18.0,29.51,SW,236,1.0,-999.0,11,-99.99,,,-99.99,,2013-05-29 02:31:00,
2013-05-28 19:42:00,75.0,19.0,29.51,West,281,1.0,-999.0,12,-99.99,,,-99.99,,2013-05-29 02:42:00,
2013-05-28 19:51:00,75.0,19.0,29.51,West,281,1.0,-999.0,12,-99.99,,,-99.99,,2013-05-29 02:51:00,
2013-05-28 20:01:00,75.0,21.0,29.51,SW,230,4.0,-999.0,13,-99.99,,,-99.99,,2013-05-29 03:01:00,
2013-05-28 20:11:00,75.0,21.0,29.51,SW,230,4.0,-999.0,13,-99.99,,,-99.99,,2013-05-29 03:11:00,
2013-05-28 20:21:00,74.0,20.0,29.50,SE,137,4.0,-999.0,13,-99.99,,,-99.99,,2013-05-29 03:21:00,
2013-05-28 20:33:00,73.0,21.0,29.51,SSW,209,1.0,-999.0,14,-99.99,,,-99.99,,2013-05-29 03:33:00,
2013-05-28 20:43:00,73.0,21.0,29.51,SSW,209,1.0,-999.0,14,-99.99,,,-99.99,,2013-05-29 03:43:00,
2013-05-28 20:53:00,72.0,23.0,29.51,West,262,1.0,-999.0,16,-99.99,,,-99.99,,2013-05-29 03:53:00,
2013-05-28 21:02:00,72.0,26.0,29.52,SW,219,1.0,-999.0,18,-99.99,,,-99.99,,2013-05-29 04:02:00,
2013-05-28 21:12:00,71.0,27.0,29.53,SW,219,0.0,-999.0,19,-99.99,,,-99.99,,2013-05-29 04:12:00,
2013-05-28 21:23:00,71.0,27.0,29.53,SW,219,0.0,-999.0,19,-99.99,,,-99.99,,2013-05-29 04:23:00,
2013-05-28 21:33:00,70.0,28.0,29.54,SW,221,0.0,-999.0,21,-99.99,,,-99.99,,2013-05-29 04:33:00,
2013-05-28 21:42:00,70.0,28.0,29.54,SW,221,0.0,-999.0,21,-99.99,,,-99.99,,2013-05-29 04:42:00,
2013-05-28 21:52:00,70.0,28.0,29.54,SSW,199,1.0,-999.0,21,-99.99,,,-99.99,,2013-05-29 04:52:00,
2013-05-28 22:02:00,70.0,27.0,29.54,East,101,1.0,-999.0,20,-99.99,,,-99.99,,2013-05-29 05:02:00,
2013-05-28 22:12:00,70.0,27.0,29.54,East,101,1.0,-999.0,20,-99.99,,,-99.99,,2013-05-29 05:12:00,
2013-05-28 22:22:00,69.0,25.0,29.55,SSE,150,1.0,-999.0,19,-99.99,,,-99.99,,2013-05-29 05:22:00,
2013-05-28 22:32:00,69.0,25.0,29.55,WNW,300,1.0,-999.0,19,-99.99,,,-99.99,,2013-05-29 05:32:00,
2013-05-28 22:42:00,69.0,25.0,29.55,WNW,300,1.0,-999.0,19,-99.99,,,-99.99,,2013-05-29 05:42:00,
2013-05-28 22:52:00,69.0,25.0,29.55,NW,306,1.0,-999.0,19,-99.99,,,-99.99,,2013-05-29 05:52:00,
2013-05-28 23:01:00,68.0,24.0,29.54,NW,304,0.0,-999.0,19,-99.99,,,-99.99,,2013-05-29 06:01:00,
2013-05-28 23:11:00,68.0,24.0,29.54,NW,304,0.0,-999.0,19,-99.99,,,-99.99,,2013-05-29 06:11:00,
2013-05-28 23:21:00,66.0,23.0,29.55,NW,304,0.0,-999.0,19,-99.99,,,-99.99,,2013-05-29 06:21:00,
2013-05-28 23:31:00,67.0,22.0,29.54,North,360,0.0,-999.0,18,-99.99,,,-99.99,,2013-05-29 06:31:00,
2013-05-28 23:41:00,67.0,22.0,29.54,North,360,0.0,-999.0,18,-99.99,,,-99.99,,2013-05-29 06:41:00,
2013-05-28 23:51:00,67.0,21.0,29.55,NNE,18,2.0,-999.0,17,-99.99,,,-99.99,,2013-05-29 06:51:00,